Change the Weather History Date:

Saturday, May 11, 2013

  Actual Average Record
Temperature  
Mean Temperature 76 °F 67 °F  
Max Temperature 94 °F 81 °F 97 °F (2006)
Min Temperature 58 °F 53 °F 40 °F (2003)
Degree Days  
Heating Degree Days 0    
Month to date heating degree days 29  
Since 1 July heating degree days 2714  
Cooling Degree Days 11    
Month to date cooling degree days 29  
Year to date cooling degree days 119  
Growing Degree Days 26 (Base 50)    
Moisture  
Dew Point 39 °F    
Average Humidity 34    
Maximum Humidity 57    
Minimum Humidity 10    
Precipitation  
Precipitation 0.00 in 0.01 in 0.02 in (1987)
Month to date precipitation 0.15 0.05  
Year to date precipitation 1.10 4.82  
Since 1 July precipitation 1.26 7.29  
Snow  
Snow 0.00 in - 0.00 in ()
Month to date snowfall 0.0  
Since 1 July snowfall 0.0  
Snow Depth 0.00 in    
Sea Level Pressure  
Sea Level Pressure 30.07 in    
Wind  
Wind Speed 7 mph (North)    
Max Wind Speed 18 mph    
Max Gust Speed 24 mph    
Visibility 10 miles    
Events      
T = Trace of Precipitation, MM = Missing Value Source: NWS Daily Summary

Daily Weather History Graph

Daily Weather History Graph

Search for Another Location

Airport or City:

Trip Planner

Search our weather history database for the weather conditions in past years. The results will help you decide how hot, cold, wet, or windy it might be!

Date:

Astronomy

May. 11, 2013 Rise Set
Actual Time 5:52 AM PDT 7:46 PM PDT
Civil Twilight 5:25 AM PDT 8:13 PM PDT
Nautical Twilight 4:51 AM PDT 8:47 PM PDT
Astronomical Twilight 4:15 AM PDT 9:23 PM PDT
Moon 7:05 AM PDT (5/11) 9:28 PM PDT (5/11)
Length of Visible Light 14h 48m
Length of Day
13h 53m
Waxing Crescent, 3% of the Moon is Illuminated
May 11
Waxing Crescent
May 17
First Quarter
May 24
Full
May 31
Last Quarter
Jun 8
New

Hourly Weather History & Observations

Time (PDT) Temp. Dew Point Humidity Pressure Visibility Wind Dir Wind Speed Gust Speed Precip Events Conditions
12:56 AM 71.1 °F 44.1 °F 38% 30.07 in 10.0 mi West 13.8 mph - N/A   Clear
1:56 AM 69.1 °F 45.0 °F 42% 30.07 in 10.0 mi West 8.1 mph - N/A   Clear
2:56 AM 66.0 °F 45.0 °F 47% 30.07 in 10.0 mi Calm Calm - N/A   Clear
3:56 AM 61.0 °F 43.0 °F 52% 30.07 in 10.0 mi Calm Calm - N/A   Clear
4:56 AM 59.0 °F 43.0 °F 55% 30.07 in 10.0 mi NNW 9.2 mph - N/A   Clear
5:56 AM 59.0 °F 44.1 °F 58% 30.09 in 10.0 mi NNW 8.1 mph - N/A   Clear
6:56 AM 63.0 °F 44.1 °F 50% 30.10 in 10.0 mi Calm Calm - N/A   Clear
7:56 AM 70.0 °F 45.0 °F 41% 30.11 in 10.0 mi Calm Calm - N/A   Clear
8:56 AM 75.9 °F 46.0 °F 35% 30.12 in 10.0 mi Calm Calm - N/A   Clear
9:56 AM 82.0 °F 41.0 °F 23% 30.12 in 10.0 mi East 4.6 mph - N/A   Clear
10:56 AM 86.0 °F 39.9 °F 20% 30.11 in 10.0 mi NE 8.1 mph - N/A   Clear
11:56 AM 89.1 °F 35.1 °F 15% 30.09 in 10.0 mi East 6.9 mph - N/A   Clear
12:56 PM 91.0 °F 34.0 °F 13% 30.08 in 10.0 mi ENE 11.5 mph 16.1 mph N/A   Clear
1:56 PM 93.0 °F 28.9 °F 10% 30.07 in 10.0 mi NE 13.8 mph 19.6 mph N/A   Clear
2:56 PM 93.9 °F 30.0 °F 10% 30.04 in 10.0 mi ENE 15.0 mph 23.0 mph N/A   Clear
3:56 PM 93.0 °F 28.9 °F 10% 30.03 in 10.0 mi Variable 6.9 mph - N/A   Clear
4:56 PM 93.9 °F 28.9 °F 10% 30.02 in 10.0 mi NE 9.2 mph - N/A   Clear
5:56 PM 93.0 °F 28.9 °F 10% 30.01 in 10.0 mi East 11.5 mph - N/A   Clear
6:56 PM 91.0 °F 28.9 °F 11% 30.01 in 10.0 mi East 6.9 mph - N/A   Clear
7:56 PM 82.9 °F 37.9 °F 20% 30.03 in 10.0 mi WSW 9.2 mph - N/A   Clear
8:56 PM 80.1 °F 37.9 °F 22% 30.05 in 10.0 mi WSW 8.1 mph - N/A   Clear
9:56 PM 75.9 °F 45.0 °F 33% 30.06 in 10.0 mi West 8.1 mph - N/A   Clear
10:56 PM 75.9 °F 46.9 °F 36% 30.07 in 10.0 mi West 9.2 mph - N/A   Clear
11:56 PM 73.0 °F 46.0 °F 38% 30.07 in 10.0 mi West 8.1 mph - N/A   Clear